Bellefontaine, OH

8:22 AM EST on December 11, 2016 (GMT -0500)
Bellefontaine

Weather History for KEDJ - February, 2014

Change the Weather History Date:

Thursday, February 27, 2014

  Actual Average (KDAY) Record (KDAY)
Temperature  
Mean Temperature 12 °F -  
Max Temperature 19 °F 43 °F 70 °F (1996)
Min Temperature 5 °F 26 °F -2 °F (1963)
Degree Days  
Heating Degree Days 53    
Moisture  
Dew Point 4 °F    
Average Humidity 65    
Maximum Humidity 80    
Minimum Humidity 45    
Precipitation  
Precipitation 0.00 in - - ()
Sea Level Pressure  
Sea Level Pressure 29.86 in    
Wind  
Wind Speed 15 mph (WNW)    
Max Wind Speed 23 mph    
Max Gust Speed 33 mph    
Visibility 9 miles    
Events      
Averages and records for this station are not official NWS values.
T = Trace of Precipitation, MM = Missing Value Source: NWS Daily Summary

Daily Weather History Graph

Daily Weather History Graph

Search for Another Location

Airport or City:

Trip Planner

Search our weather history database for the weather conditions in past years. The results will help you decide how hot, cold, wet, or windy it might be!

Date:

Astronomy

Feb. 27, 2014 Rise Set
Actual Time 7:11 AM EST 6:24 PM EST
Civil Twilight 6:44 AM EST 6:52 PM EST
Nautical Twilight 6:13 AM EST 7:23 PM EST
Astronomical Twilight 5:41 AM EST 7:55 PM EST
Moon 5:43 AM EST (2/27) 4:49 PM EST (2/27)
Length of Visible Light 12h 07m
Length of Day
11h 12m
Waning Crescent, 4% of the Moon is Illuminated
Feb 27
Waning Crescent
Mar 1
New
Mar 8
First Quarter
Mar 16
Full
Mar 23
Last Quarter

Hourly Weather History & Observations

Time (EST) Temp. Windchill Dew Point Humidity Pressure Visibility Wind Dir Wind Speed Gust Speed Precip Events Conditions
12:10 AM 15.8 °F 0.3 °F 3.2 °F 58% 29.73 in 10.0 mi SW 16.1 mph 26.5 mph 0.00 in   Clear
12:30 AM 15.8 °F 0.3 °F 3.2 °F 58% 29.72 in 10.0 mi SW 16.1 mph 24.2 mph 0.00 in   Clear
12:50 AM 14.0 °F -1.4 °F 5.0 °F 67% 29.71 in 10.0 mi SW 15.0 mph 21.9 mph 0.00 in   Clear
1:10 AM 14.0 °F -2.0 °F 5.0 °F 67% 29.70 in 10.0 mi SW 16.1 mph 23.0 mph 0.00 in   Clear
1:30 AM 14.0 °F -2.0 °F 5.0 °F 67% 29.68 in 10.0 mi SW 16.1 mph 24.2 mph 0.00 in   Clear
1:50 AM 14.0 °F -2.5 °F 5.0 °F 67% 29.67 in 10.0 mi SW 17.3 mph 23.0 mph 0.00 in   Clear
2:10 AM 14.0 °F -1.4 °F 5.0 °F 67% 29.66 in 10.0 mi SW 15.0 mph 26.5 mph 0.00 in   Clear
2:30 AM 15.8 °F -0.2 °F 5.0 °F 62% 29.65 in 10.0 mi SW 17.3 mph - 0.00 in   Partly Cloudy
2:50 AM 15.8 °F 0.9 °F 5.0 °F 62% 29.64 in 10.0 mi SW 15.0 mph 24.2 mph 0.00 in   Scattered Clouds
3:10 AM 17.6 °F 0.9 °F 5.0 °F 58% 29.62 in 10.0 mi SW 20.7 mph 28.8 mph 0.00 in   Mostly Cloudy
3:30 AM 17.6 °F 0.9 °F 5.0 °F 58% 29.61 in 10.0 mi SW 20.7 mph 27.6 mph 0.00 in   Overcast
3:50 AM 17.6 °F 0.5 °F 5.0 °F 58% 29.61 in 10.0 mi SW 21.9 mph 26.5 mph 0.00 in   Overcast
4:10 AM 17.6 °F 1.7 °F 5.0 °F 58% 29.61 in 10.0 mi SW 18.4 mph 26.5 mph 0.00 in   Overcast
4:30 AM 17.6 °F 0.1 °F 5.0 °F 58% 29.61 in 10.0 mi SW 23.0 mph 28.8 mph 0.00 in   Overcast
4:50 AM 17.6 °F 1.7 °F 5.0 °F 58% 29.61 in 10.0 mi SW 18.4 mph 25.3 mph 0.00 in   Mostly Cloudy
5:10 AM 17.6 °F 2.2 °F 5.0 °F 58% 29.61 in 10.0 mi SW 17.3 mph 28.8 mph 0.00 in   Scattered Clouds
5:30 AM 17.6 °F 2.7 °F 6.8 °F 63% 29.61 in 10.0 mi WSW 16.1 mph 24.2 mph 0.00 in   Mostly Cloudy
5:50 AM 19.4 °F 5.0 °F 8.6 °F 63% 29.61 in 10.0 mi WSW 16.1 mph 24.2 mph 0.00 in   Mostly Cloudy
6:10 AM 19.4 °F 2.8 °F 10.4 °F 68% 29.61 in 5.0 mi West 21.9 mph 31.1 mph 0.00 in   Mostly Cloudy
6:30 AM 19.4 °F 4.1 °F 14.0 °F 80% 29.63 in 1.8 mi West 18.4 mph 28.8 mph 0.00 in   Overcast
6:50 AM 19.4 °F 4.1 °F 12.2 °F 74% 29.63 in 10.0 mi West 18.4 mph - 0.00 in   Mostly Cloudy
7:10 AM 19.4 °F 4.1 °F 10.4 °F 68% 29.64 in 9.0 mi West 18.4 mph 29.9 mph 0.00 in   Partly Cloudy
7:30 AM 17.6 °F 3.7 °F 10.4 °F 73% 29.66 in 10.0 mi West 13.8 mph 24.2 mph 0.00 in   Partly Cloudy
7:50 AM 17.6 °F 1.3 °F 12.2 °F 79% 29.67 in 10.0 mi West 19.6 mph - 0.00 in   Scattered Clouds
8:10 AM 17.6 °F 3.2 °F 10.4 °F 73% 29.69 in 10.0 mi West 15.0 mph 24.2 mph 0.00 in   Scattered Clouds
8:30 AM 17.6 °F 2.7 °F 8.6 °F 68% 29.71 in 10.0 mi West 16.1 mph 26.5 mph 0.00 in   Scattered Clouds
8:50 AM 17.6 °F 2.2 °F 8.6 °F 68% 29.73 in 10.0 mi West 17.3 mph 27.6 mph 0.00 in   Mostly Cloudy
9:10 AM 17.6 °F 0.1 °F 8.6 °F 68% 29.75 in 5.0 mi WNW 23.0 mph 29.9 mph 0.00 in   Scattered Clouds
9:30 AM 17.6 °F 2.2 °F 12.2 °F 79% 29.77 in 3.0 mi WNW 17.3 mph 28.8 mph 0.00 in   Scattered Clouds
9:50 AM 15.8 °F -0.2 °F 5.0 °F 62% 29.79 in 10.0 mi WNW 17.3 mph 33.4 mph 0.00 in   Mostly Cloudy
10:10 AM 17.6 °F 2.2 °F 5.0 °F 58% 29.80 in 10.0 mi West 17.3 mph 28.8 mph 0.00 in   Scattered Clouds
10:30 AM 17.6 °F 0.9 °F 5.0 °F 58% 29.81 in 10.0 mi West 20.7 mph 26.5 mph 0.00 in   Mostly Cloudy
10:50 AM 17.6 °F 1.7 °F 3.2 °F 53% 29.84 in 10.0 mi West 18.4 mph 24.2 mph 0.00 in   Mostly Cloudy
11:10 AM 15.8 °F -0.6 °F 3.2 °F 58% 29.86 in 10.0 mi WNW 18.4 mph 29.9 mph 0.00 in   Scattered Clouds
11:30 AM 15.8 °F -1.9 °F 1.4 °F 53% 29.87 in 10.0 mi WNW 21.9 mph 32.2 mph 0.00 in   Scattered Clouds
11:50 AM 17.6 °F 0.1 °F -0.4 °F 45% 29.88 in 10.0 mi WNW 23.0 mph 32.2 mph 0.00 in   Scattered Clouds
12:10 PM 15.8 °F 1.4 °F -0.4 °F 49% 29.90 in 9.0 mi West 13.8 mph 31.1 mph 0.00 in   Scattered Clouds
12:30 PM 15.8 °F -2.3 °F -2.2 °F 45% 29.91 in 10.0 mi NW 23.0 mph 29.9 mph 0.00 in   Scattered Clouds
12:50 PM 17.6 °F 2.2 °F -0.4 °F 45% 29.92 in 10.0 mi WNW 17.3 mph 24.2 mph 0.00 in   Scattered Clouds
1:10 PM 15.8 °F 2.1 °F -0.4 °F 49% 29.93 in 9.0 mi West 12.7 mph 32.2 mph 0.00 in   Scattered Clouds
1:30 PM 17.6 °F 3.7 °F 1.4 °F 49% 29.94 in 6.0 mi WNW 13.8 mph 23.0 mph 0.00 in   Partly Cloudy
1:50 PM 17.6 °F 1.7 °F 1.4 °F 49% 29.95 in 7.0 mi WNW 18.4 mph 24.2 mph 0.00 in   Partly Cloudy
2:10 PM 17.6 °F 0.9 °F 1.4 °F 49% 29.96 in 9.0 mi NNW 20.7 mph 25.3 mph 0.00 in   Partly Cloudy
2:30 PM 14.0 °F -1.4 °F 8.6 °F 79% 29.97 in 1.8 mi WNW 15.0 mph 20.7 mph 0.00 in   Scattered Clouds
2:50 PM 15.8 °F 4.2 °F 5.0 °F 62% 29.97 in 4.0 mi WNW 9.2 mph 20.7 mph 0.00 in   Partly Cloudy
3:10 PM 14.0 °F -1.4 °F 8.6 °F 79% 29.98 in 2.0 mi WNW 15.0 mph 20.7 mph 0.00 in   Mostly Cloudy
3:30 PM 17.6 °F 5.0 °F 3.2 °F 53% 29.98 in 10.0 mi West 11.5 mph 20.7 mph 0.00 in   Scattered Clouds
3:50 PM 17.6 °F 3.7 °F 5.0 °F 58% 29.99 in 10.0 mi WNW 13.8 mph 24.2 mph 0.00 in   Scattered Clouds
4:10 PM 15.8 °F 3.4 °F 1.4 °F 53% 30.00 in 10.0 mi West 10.4 mph 19.6 mph 0.00 in   Scattered Clouds
4:30 PM 14.0 °F 2.0 °F 5.0 °F 67% 30.01 in 7.0 mi WNW 9.2 mph 18.4 mph 0.00 in   Scattered Clouds
4:50 PM 14.0 °F 0.5 °F 5.0 °F 67% 30.01 in 10.0 mi NW 11.5 mph 18.4 mph 0.00 in   Mostly Cloudy
5:10 PM 14.0 °F 1.2 °F 3.2 °F 62% 30.02 in 10.0 mi NW 10.4 mph 16.1 mph 0.00 in   Scattered Clouds
5:30 PM 14.0 °F 1.2 °F 1.4 °F 57% 30.02 in 10.0 mi WNW 10.4 mph 16.1 mph 0.00 in   Scattered Clouds
5:50 PM 14.0 °F -0.2 °F 1.4 °F 57% 30.03 in 10.0 mi NNW 12.7 mph - 0.00 in   Scattered Clouds
6:10 PM 12.2 °F -1.0 °F 3.2 °F 67% 30.04 in 10.0 mi NNW 10.4 mph - 0.00 in   Scattered Clouds
6:30 PM 12.2 °F -0.2 °F 3.2 °F 67% 30.05 in 10.0 mi NNW 9.2 mph - 0.00 in   Partly Cloudy
6:50 PM 10.4 °F -0.4 °F 1.4 °F 67% 30.06 in 10.0 mi NNW 6.9 mph - 0.00 in   Partly Cloudy
7:10 PM 10.4 °F -0.4 °F 1.4 °F 67% 30.06 in 10.0 mi North 6.9 mph - 0.00 in   Clear
7:30 PM 8.6 °F 2.0 °F 1.4 °F 73% 30.07 in 10.0 mi NW 3.5 mph - 0.00 in   Clear
7:50 PM 8.6 °F 2.0 °F 1.4 °F 73% 30.07 in 10.0 mi NW 3.5 mph - 0.00 in   Clear
8:10 PM 8.6 °F 0.1 °F 1.4 °F 73% 30.08 in 10.0 mi North 4.6 mph - 0.00 in   Clear
8:30 PM 8.6 °F 2.0 °F 1.4 °F 73% 30.09 in 10.0 mi North 3.5 mph - 0.00 in   Clear
8:50 PM 6.8 °F -2.0 °F 1.4 °F 79% 30.09 in 10.0 mi North 4.6 mph - 0.00 in   Clear
9:10 PM 8.6 °F 0.1 °F 1.4 °F 73% 30.10 in 10.0 mi North 4.6 mph - 0.00 in   Clear
9:30 PM 6.8 °F -0.1 °F 1.4 °F 79% 30.10 in 10.0 mi North 3.5 mph - 0.00 in   Clear
9:50 PM 6.8 °F -0.1 °F 1.4 °F 79% 30.11 in 10.0 mi NNE 3.5 mph - 0.00 in   Clear
10:10 PM 6.8 °F -0.1 °F 1.4 °F 79% 30.11 in 10.0 mi NNE 3.5 mph - 0.00 in   Clear
10:30 PM 6.8 °F -0.1 °F -0.4 °F 72% 30.12 in 10.0 mi NNE 3.5 mph - 0.00 in   Clear
10:50 PM 6.8 °F -0.1 °F -0.4 °F 72% 30.12 in 10.0 mi NNE 3.5 mph - 0.00 in   Clear
11:10 PM 5.0 °F - -0.4 °F 78% 30.12 in 10.0 mi Calm Calm - 0.00 in   Clear
11:30 PM 5.0 °F -2.1 °F -0.4 °F 78% 30.12 in 10.0 mi NE 3.5 mph - 0.00 in   Clear
11:50 PM 5.0 °F -4.1 °F -0.4 °F 78% 30.12 in 10.0 mi NE 4.6 mph - 0.00 in   Clear